Change the Weather History Date:

Monday, September 17, 2012

  Actual Average Record
Temperature  
Mean Temperature 66 °F -  
Max Temperature 75 °F - - ()
Min Temperature 58 °F - - ()
Cooling Degree Days 2    
Growing Degree Days 16 (Base 50)    
Moisture  
Dew Point 52 °F    
Average Humidity 59    
Maximum Humidity 86    
Minimum Humidity 27    
Precipitation  
Precipitation 0.00 in - - ()
Sea Level Pressure  
Sea Level Pressure 29.92 in    
Wind  
Wind Speed 7 mph ()    
Max Wind Speed 12 mph    
Max Gust Speed 17 mph    
T = Trace of Precipitation, MM = Missing Value Source: Averaged Metar Reports

Daily Weather History Graph

Daily Weather History Graph

Search for Another Location

Airport or City:

Trip Planner

Search our weather history database for the weather conditions in past years. The results will help you decide how hot, cold, wet, or windy it might be!

Date:

Astronomy

Sep. 17, 2012 Rise Set
Actual Time 6:59 AM EDT 7:23 PM EDT
Civil Twilight 6:31 AM EDT 7:51 PM EDT
Nautical Twilight 5:57 AM EDT 8:25 PM EDT
Astronomical Twilight 5:23 AM EDT 8:59 PM EDT
Moon 8:51 AM EDT (9/17) 7:58 PM EDT (9/17)
Length of Visible Light 13h 20m
Length of Day
12h 23m
Waxing Crescent, 3% of the Moon is Illuminated
Sep 17
Waxing Crescent
Sep 22
First Quarter
Sep 29
Full
Oct 8
Last Quarter
Oct 15
New

Hourly Weather History & Observations

Time (EDT) Temp. Dew Point Humidity Pressure Visibility Wind Dir Wind Speed Gust Speed Precip Events Conditions
12:00 AM 63.9 °F 51.4 °F 64% 29.99 in - WSW 10.4 mph - N/A   Unknown
1:00 AM 62.2 °F 51.4 °F 68% 29.99 in - WSW 6.9 mph - N/A   Unknown
2:00 AM 63 °F 52 °F 58% 29.99 in - WSW 9.2 mph - -  
2:00 AM 63.0 °F 51.8 °F 67% 29.99 in - WSW 9.2 mph - N/A   Unknown
3:00 AM 63.1 °F 52.0 °F 67% 29.99 in - WSW 8.1 mph - N/A   Unknown
4:00 AM 62.4 °F 54.7 °F 76% 29.98 in - WSW 4.6 mph - N/A   Unknown
5:00 AM 59.2 °F 54.9 °F 86% 29.98 in - NNE 2.3 mph - N/A   Unknown
6:00 AM 63.5 °F 56.3 °F 77% 29.98 in - SW 5.8 mph - N/A   Unknown
7:00 AM 62.6 °F 55.2 °F 77% 29.98 in - SW 6.9 mph - N/A   Unknown
8:00 AM 64 °F 55 °F 66% 29.98 in - SW 9.2 mph - -  
8:00 AM 63.7 °F 55.4 °F 74% 29.98 in - SW 9.2 mph - N/A   Unknown
9:00 AM 67.3 °F 56.5 °F 68% 29.98 in - SW 9.2 mph - N/A   Unknown
10:00 AM 70.7 °F 55.9 °F 59% 29.97 in - SW 10.4 mph 17.3 mph N/A   Unknown
12:00 PM 73.6 °F 50.5 °F 44% 29.95 in - SSW 11.5 mph 17.3 mph N/A   Unknown
1:00 PM 73.2 °F 47.8 °F 41% 29.94 in - SSW 11.5 mph - N/A   Unknown
2:00 PM 75 °F 48 °F 27% 29.92 in - SSW 10.4 mph - -  
2:00 PM 74.7 °F 48.0 °F 39% 29.92 in - SSW 10.4 mph - N/A   Unknown
3:00 PM 73.0 °F 47.7 °F 40% 29.89 in - SSW 9.2 mph - N/A   Unknown
4:00 PM 73.8 °F 47.3 °F 39% 29.88 in - SW 9.2 mph - N/A   Unknown
5:00 PM 72.0 °F 48.2 °F 43% 29.87 in - SW 8.1 mph - N/A   Unknown
6:00 PM 69.8 °F 49.3 °F 48% 29.85 in - SW 5.8 mph - N/A   Unknown
7:00 PM 66.9 °F 49.6 °F 54% 29.84 in - SSW 3.5 mph - N/A   Unknown
8:00 PM 65 °F 51 °F 50% 29.83 in - South 3.5 mph - -  
8:00 PM 64.6 °F 50.7 °F 61% 29.83 in - South 3.5 mph - N/A   Unknown
9:00 PM 63.0 °F 50.5 °F 64% 29.82 in - South 3.5 mph - N/A   Unknown
10:00 PM 62.6 °F 50.7 °F 65% 29.81 in - South 3.5 mph - N/A   Unknown
11:00 PM 63.1 °F 52.9 °F 69% 29.78 in - South 3.5 mph - N/A   Unknown